Regional Weather Roundup
Issued by NWS

Home | Current Version | Previous Version | Text Only | Print | Product List | Glossary Off
Versions: 1 2 3 4 5 6 7 8 9 10 11 12 13 14 15 16 17 18 19 20 21 22 23 24 25 26 27 28 29 30 31 32 33 34 35 36 37 38 39 40 41 42 43 44 45 46 47 48 49 50

000
ASUS45 KBOU 212007
RWRCO

WEATHER ROUNDUP FOR COLORADO
NATIONAL WEATHER SERVICE DENVER/BOULDER CO
200 PM MDT MON JUL 21 2014

NOTE: "FAIR" INDICATES FEW OR NO CLOUDS BELOW 12000 FEET WITH NO
SIGNIFICANT WEATHER AND/OR OBSTRUCTIONS TO VISIBILITY.

COZ001>005-013-030-031-212100-
...NORTHWEST COLORADO...

CITY           SKY/WX    TMP DP  RH WIND       PRES   REMARKS
CRAIG          MOSUNNY   87  39  18 W15       30.22F
HAYDEN         MOSUNNY   86  36  16 NW9       30.25F
MEEKER         MOSUNNY   90  32  12 SW14G28   30.24F
MOUNT WERNER   NOT AVBL
STEAMBOAT SPGS MOSUNNY   85  39  19 CALM      30.28S
WALDEN         MOSUNNY   79  34  19 SW17G23   30.39F
$$

COZ006>008-011-212100-
...WEST CENTRAL VALLEYS...

CITY           SKY/WX    TMP DP  RH WIND       PRES   REMARKS
GRAND JUNCTION MOSUNNY   93  36  13 NW13G22   30.13F
MONTROSE       MOSUNNY   92  36  14 N9G16     30.22F
EAGLE          MOSUNNY   84  36  17 W18G30    30.29F
RIFLE          MOSUNNY   92  34  13 W14G20    30.19F
DELTA          MOSUNNY   94  33  11 S5        30.19S
NUCLA          NOT AVBL
$$

COZ017>023-064>068-212100-
...SOUTHWEST COLORADO...

CITY           SKY/WX    TMP DP  RH WIND       PRES   REMARKS
DURANGO        PTSUNNY   87  32  14 VRB6G22   30.32F
CORTEZ         SUNNY     91  34  13 S8        30.27F
PAGOSA SPRINGS PTSUNNY   82  31  15 CALM      30.40F
TELLURIDE      NOT AVBL
WOLF CREEK PAS NOT AVBL
$$

COZ009-010-012-014-032>034-037-058>063-212100-
...CENTRAL COLORADO...

CITY           SKY/WX    TMP DP  RH WIND       PRES   REMARKS
ASPEN          MOSUNNY   80  32  17 CALM      30.37F
BUENA VISTA    PTSUNNY   79  32  18 E3        30.38F
COPPER MTN     PTSUNNY   64  27  24 SW15G29   30.75R
BERTHOUD PASS  FAIR      54  41  62 W21G30    30.78S
COTTONWOOD PAS PTSUNNY   79  23  12 W6        30.56S
GUNNISON       MOSUNNY   81  37  21 SW9G20    30.40F
KREMMLING      MOSUNNY   84  28  13 SW15      30.35S
LEADVILLE      PTSUNNY   70  31  23 W10G17    30.54F HAZE
MONARCH PASS   PTSUNNY   61  30  31 W21G36    30.84S
SALIDA         PTSUNNY   83  31  14 W10G16    30.42F
SUNLIGHT       MOSUNNY   68  41  37 CALM      30.66S
WILKERSON PASS NOT AVBL
$$

COZ069>075-212100-
...SAN LUIS VALLEY/SANGRE DE CRISTO MOUNTAINS...

CITY           SKY/WX    TMP DP  RH WIND       PRES   REMARKS
ALAMOSA        MOSUNNY   80  43  26 W3        30.36F
LA VETA PASS   NOT AVBL
SAGUACHE       TSTM      66  46  48 W14G47    30.45R
$$

COZ035-036-038>040-212100-
...NORTHERN COLORADO FRONT RANGE...

CITY           SKY/WX    TMP DP  RH WIND       PRES   REMARKS
DENVER INTL AP PTSUNNY   93  35  13 W7        30.15F
DMNS CITY PARK   N/A     93  39  15 SE3G12    30.14S
AURORA         PTSUNNY   89  40  18 S1        30.19S
FRONT RANGE AP NOT AVBL
ERIE MUNI ARPT PTSUNNY   94  33  11 SW3       30.11F
BOULDER MUN AP PTSUNNY   95  36  12 W13G22    30.12F
CENTENNIAL     CLOUDY    88  34  14 S8        30.19F
BROOMFIELD     PTSUNNY   95  39  14 S10       30.17F
FORT COLLINS   PTSUNNY   97  43  15 SE10      30.08F
LONGMONT       PTSUNNY   98  37  11 SW10G20   30.11F
$$

COZ041-046-047-076>085-087-088-212100-
...PIKES PEAK/PALMER DIVIDE AND SOUTHERN FOOTHILLS...

CITY           SKY/WX    TMP DP  RH WIND       PRES   REMARKS
COLO. SPRINGS  PTSUNNY   88  45  22 S13G18    30.25F
A. F. ACADEMY  MOSUNNY   84  41  22 SE13      30.25F
ELLICOTT       PTSUNNY   86  47  25 S13       30.23F
FALCON         PTSUNNY   85  42  21 S9        30.31F
FORT CARSON    PTSUNNY   89  45  21 S10G18    30.21F
LIMON          CLOUDY    94  37  13 VRB7      30.16S
MONUMENT HILL  PTSUNNY   86  34  15 N9        30.30F
TRINIDAD       MOSUNNY   91  41  17 VRB3      30.20S
$$

COZ042>045-048>051-090-091-212100-
...NORTHEAST COLORADO...

CITY           SKY/WX    TMP DP  RH WIND       PRES   REMARKS
GREELEY ARPT   PTSUNNY   97  46  17 S6        30.10S
AKRON          CLOUDY    97  39  13 NW12G22   30.09F
BURLINGTON     PTSUNNY   94  55  26 NE7       30.06F
WRAY             N/A    101  42  13 SE8       30.02F
STERLING       CLOUDY    97  59  28 SW10      30.02F
HOLYOKE        CLOUDY   102  57  22 CALM      30.01S
FORT MORGAN    CLOUDY    92  46  20 SE5       30.09S
$$

COZ086-089-092>099-212100-
...SOUTHEAST COLORADO...

CITY           SKY/WX    TMP DP  RH WIND       PRES   REMARKS
PUEBLO         PTSUNNY   96  39  13 N5        30.09F
LA JUNTA       PTSUNNY   94  53  25 CALM      30.06F
LAMAR          SUNNY     99  48  17 VRB5      29.99F
SPRINGFIELD      N/A     95  58  28 SW14G21   30.05F
$$


USA.gov is the U.S. government's official web portal to all federal, state and local government web resources and services.